| time (UTC) | temp F | wind direction | speed MPH | gust MPH | rain 1hr in | rain 24hr in | rain mn in | humidity % | barometer mb |
| 20260510155019 | 54 | 23 | 10.0 | 20.0 | 0.00 | 0.00 | 0.00 | 78 | 1011.8 |
| 20260510154019 | 55 | 23 | 11.0 | 24.0 | 0.00 | 0.00 | 0.00 | 77 | 1012.1 |
| 20260510153032 | 55 | 23 | 12.0 | 20.0 | 0.00 | 0.00 | 0.00 | 77 | 1012.1 |
| 20260510152029 | 56 | 23 | 12.0 | 19.0 | 0.00 | 0.00 | 0.00 | 76 | 1012.1 |
| 20260510151019 | 56 | 23 | 9.0 | 18.0 | 0.00 | 0.00 | 0.00 | 75 | 1012.3 |
| 20260510150019 | 56 | 0 | 13.0 | 22.0 | 0.00 | 0.00 | 0.00 | 74 | 1012.6 |
| 20260510145019 | 56 | 23 | 11.0 | 18.0 | 0.00 | 0.00 | 0.00 | 73 | 1012.6 |
| 20260510144131 | 57 | 23 | 13.0 | 20.0 | 0.00 | 0.00 | 0.00 | 73 | 1012.8 |
| 20260510143051 | 57 | 338 | 10.0 | 18.0 | 0.00 | 0.00 | 0.00 | 72 | 1012.7 |
| 20260510142019 | 57 | 45 | 7.0 | 13.0 | 0.00 | 0.00 | 0.00 | 71 | 1012.8 |
| 20260510141030 | 58 | 23 | 7.0 | 16.0 | 0.00 | 0.00 | 0.00 | 71 | 1012.7 |
| 20260510140019 | 57 | 68 | 6.0 | 13.0 | 0.00 | 0.00 | 0.00 | 71 | 1012.7 |
| 20260510135018 | 58 | 23 | 10.0 | 22.0 | 0.00 | 0.00 | 0.00 | 70 | 1012.9 |
| 20260510134039 | 58 | 45 | 10.0 | 14.0 | 0.00 | 0.00 | 0.00 | 71 | 1013.0 |
| 20260510133019 | 59 | 23 | 13.0 | 20.0 | 0.00 | 0.00 | 0.00 | 69 | 1013.0 |
| 20260510132019 | 58 | 23 | 16.0 | 23.0 | 0.00 | 0.00 | 0.00 | 69 | 1013.2 |
| 20260510131040 | 58 | 23 | 8.0 | 14.0 | 0.00 | 0.00 | 0.00 | 71 | 1013.3 |
| 20260510130041 | 59 | 23 | 12.0 | 20.0 | 0.00 | 0.00 | 0.00 | 70 | 1013.3 |
| 20260510125018 | 59 | 23 | 9.0 | 21.0 | 0.00 | 0.00 | 0.00 | 69 | 1013.2 |
| 20260510124018 | 59 | 23 | 9.0 | 14.0 | 0.00 | 0.00 | 0.00 | 71 | 1013.4 |
| 20260510123018 | 59 | 23 | 12.0 | 14.0 | 0.00 | 0.00 | 0.00 | 71 | 1013.5 |
| 20260510122019 | 59 | 23 | 10.0 | 18.0 | 0.00 | 0.00 | 0.00 | 72 | 1013.6 |
| 20260510121029 | 59 | 23 | 11.0 | 16.0 | 0.00 | 0.00 | 0.00 | 71 | 1013.5 |
| 20260510120019 | 60 | 0 | 10.0 | 18.0 | 0.00 | 0.00 | 0.00 | 71 | 1013.5 |
| 20260510115019 | 59 | 45 | 10.0 | 15.0 | 0.00 | 0.00 | 0.00 | 72 | 1013.5 |
| 20260510114020 | 60 | 45 | 6.0 | 13.0 | 0.00 | 0.00 | 0.00 | 71 | 1013.7 |
| 20260510113042 | 60 | 45 | 8.0 | 15.0 | 0.00 | 0.00 | 0.00 | 71 | 1014.0 |
| 20260510112018 | 60 | 23 | 10.0 | 18.0 | 0.00 | 0.00 | 0.00 | 71 | 1014.1 |
| 20260510111018 | 60 | 23 | 12.0 | 17.0 | 0.00 | 0.00 | 0.00 | 70 | 1014.0 |
| 20260510110049 | 60 | 23 | 15.0 | 22.0 | 0.00 | 0.00 | 0.00 | 70 | 1013.8 |
| 20260510105018 | 60 | 0 | 11.0 | 13.0 | 0.00 | 0.00 | 0.00 | 70 | 1014.0 |
| 20260510104018 | 60 | 45 | 11.0 | 21.0 | 0.00 | 0.00 | 0.00 | 69 | 1013.7 |
| 20260510103018 | 60 | 45 | 6.0 | 12.0 | 0.00 | 0.00 | 0.00 | 69 | 1013.8 |
| 20260510102018 | 61 | 0 | 10.0 | 20.0 | 0.00 | 0.00 | 0.00 | 68 | 1014.1 |
| 20260510101029 | 61 | 45 | 5.0 | 8.0 | 0.00 | 0.00 | 0.00 | 67 | 1013.9 |
| 20260510100040 | 61 | 23 | 10.0 | 17.0 | 0.00 | 0.00 | 0.00 | 68 | 1014.1 |
| 20260510095018 | 60 | 23 | 8.0 | 17.0 | 0.00 | 0.00 | 0.00 | 67 | 1014.3 |
| 20260510094020 | 61 | 45 | 8.0 | 15.0 | 0.00 | 0.00 | 0.00 | 67 | 1014.1 |
| 20260510093049 | 61 | 0 | 11.0 | 21.0 | 0.00 | 0.00 | 0.00 | 66 | 1014.3 |
| 20260510092042 | 60 | 23 | 10.0 | 16.0 | 0.00 | 0.00 | 0.00 | 68 | 1014.4 |
| 20260510091112 | 60 | 0 | 5.0 | 9.0 | 0.00 | 0.00 | 0.00 | 67 | 1014.3 |
| 20260510090020 | 61 | 45 | 7.0 | 11.0 | 0.00 | 0.00 | 0.00 | 67 | 1014.1 |
| 20260510085101 | 61 | 23 | 8.0 | 14.0 | 0.00 | 0.00 | 0.00 | 66 | 1013.9 |
| 20260510084020 | 60 | 45 | 10.0 | 15.0 | 0.00 | 0.00 | 0.00 | 64 | 1014.1 |
| 20260510083020 | 60 | 0 | 11.0 | 16.0 | 0.00 | 0.00 | 0.00 | 67 | 1014.3 |
| 20260510082018 | 60 | 23 | 7.0 | 15.0 | 0.00 | 0.00 | 0.00 | 69 | 1014.2 |
| 20260510081040 | 60 | 23 | 6.0 | 17.0 | 0.00 | 0.00 | 0.00 | 69 | 1014.4 |
| 20260510080038 | 59 | 45 | 8.0 | 12.0 | 0.00 | 0.00 | 0.00 | 68 | 1014.4 |
| 20260510075020 | 59 | 45 | 9.0 | 14.0 | 0.00 | 0.00 | 0.00 | 67 | 1014.7 |
| 20260510074018 | 60 | 23 | 12.0 | 18.0 | 0.00 | 0.00 | 0.00 | 68 | 1014.7 |
| 20260510073020 | 59 | 45 | 7.0 | 13.0 | 0.00 | 0.00 | 0.00 | 69 | 1014.8 |
| 20260510072018 | 59 | 23 | 7.0 | 14.0 | 0.00 | 0.00 | 0.00 | 70 | 1014.8 |
| 20260510071052 | 58 | 23 | 10.0 | 13.0 | 0.00 | 0.00 | 0.00 | 70 | 1015.0 |
| 20260510070040 | 58 | 0 | 7.0 | 11.0 | 0.00 | 0.00 | 0.00 | 71 | 1015.0 |
| 20260510065031 | 57 | 45 | 7.0 | 13.0 | 0.00 | 0.00 | 0.00 | 73 | 1015.0 |
| 20260510064020 | 57 | 45 | 7.0 | 11.0 | 0.00 | 0.00 | 0.00 | 75 | 1015.1 |
| 20260510063003 | 56 | 45 | 5.0 | 10.0 | 0.00 | 0.00 | 0.00 | 76 | 1015.0 |
| 20260510062044 | 56 | 338 | 5.0 | 10.0 | 0.00 | 0.00 | 0.00 | 79 | 1015.0 |
| 20260510061020 | 55 | 0 | 4.0 | 6.0 | 0.00 | 0.00 | 0.00 | 79 | 1014.9 |
| 20260510060040 | 55 | 45 | 4.0 | 8.0 | 0.00 | 0.00 | 0.00 | 81 | 1014.8 |
| 20260510055020 | 54 | 45 | 8.0 | 11.0 | 0.00 | 0.00 | 0.00 | 82 | 1014.7 |
| 20260510054019 | 54 | 45 | 5.0 | 10.0 | 0.00 | 0.00 | 0.00 | 82 | 1014.8 |
| 20260510053020 | 54 | 45 | 4.0 | 8.0 | 0.00 | 0.00 | 0.00 | 83 | 1014.8 |
| 20260510052050 | 53 | 45 | 5.0 | 8.0 | 0.00 | 0.00 | 0.00 | 84 | 1014.9 |
| 20260510051031 | 53 | 68 | 2.0 | 4.0 | 0.00 | 0.00 | 0.00 | 84 | 1014.8 |
| 20260510050031 | 53 | 45 | 8.0 | 14.0 | 0.00 | 0.00 | 0.00 | 85 | 1014.7 |
| 20260510045020 | 53 | 45 | 4.0 | 11.0 | 0.00 | 0.00 | 0.00 | 85 | 1014.7 |
| 20260510044020 | 53 | 45 | 4.0 | 6.0 | 0.00 | 0.00 | 0.00 | 86 | 1014.9 |
| 20260510043020 | 53 | 0 | 4.0 | 9.0 | 0.00 | 0.00 | 0.00 | 85 | 1014.9 |
| 20260510042100 | 53 | 315 | 2.0 | 4.0 | 0.00 | 0.00 | 0.00 | 85 | 1014.8 |
| 20260510041019 | 53 | 68 | 3.0 | 5.0 | 0.00 | 0.00 | 0.00 | 85 | 1014.7 |
| 20260510040020 | 53 | 45 | 4.0 | 9.0 | 0.00 | 0.00 | 0.00 | 84 | 1014.7 |
| 20260510035020 | 53 | 23 | 4.0 | 10.0 | 0.00 | 0.00 | 0.00 | 84 | 1014.5 |
| 20260510034041 | 53 | 23 | 5.0 | 9.0 | 0.00 | 0.00 | 0.00 | 84 | 1014.5 |
| 20260510033020 | 53 | 23 | 4.0 | 6.0 | 0.00 | 0.00 | 0.00 | 84 | 1014.5 |
| 20260510032019 | 53 | 90 | 4.0 | 9.0 | 0.00 | 0.00 | 0.00 | 84 | 1014.6 |
| 20260510031040 | 53 | 23 | 4.0 | 6.0 | 0.00 | 0.00 | 0.00 | 84 | 1014.6 |
| 20260510030019 | 53 | 23 | 1.0 | 2.0 | 0.00 | 0.00 | 0.00 | 85 | 1014.6 |
| 20260510025050 | 53 | 23 | 3.0 | 4.0 | 0.00 | 0.00 | 0.00 | 85 | 1014.6 |
| 20260510024020 | 53 | 45 | 4.0 | 6.0 | 0.00 | 0.00 | 0.00 | 85 | 1014.6 |
| 20260510023020 | 54 | 338 | 2.0 | 7.0 | 0.00 | 0.00 | 0.00 | 84 | 1014.7 |
| 20260510022030 | 54 | 23 | 3.0 | 4.0 | 0.00 | 0.00 | 0.00 | 84 | 1014.7 |
| 20260510021019 | 54 | 68 | 2.0 | 3.0 | 0.00 | 0.00 | 0.00 | 84 | 1014.8 |
| 20260510020020 | 54 | 23 | 2.0 | 4.0 | 0.00 | 0.00 | 0.00 | 84 | 1014.9 |
| 20260510015041 | 54 | 45 | 4.0 | 8.0 | 0.00 | 0.00 | 0.00 | 84 | 1014.9 |
| 20260510014041 | 54 | 0 | 6.0 | 10.0 | 0.00 | 0.00 | 0.00 | 83 | 1015.0 |
| 20260510013020 | 54 | 0 | 5.0 | 9.0 | 0.00 | 0.00 | 0.00 | 83 | 1015.0 |
| 20260510012101 | 54 | 0 | 3.0 | 5.0 | 0.00 | 0.00 | 0.00 | 83 | 1015.1 |
| 20260510011019 | 54 | 23 | 3.0 | 8.0 | 0.00 | 0.00 | 0.00 | 83 | 1015.1 |
| 20260510010019 | 54 | 23 | 5.0 | 11.0 | 0.00 | 0.00 | 0.00 | 82 | 1015.1 |
| 20260510005019 | 54 | 45 | 4.0 | 6.0 | 0.00 | 0.00 | 0.00 | 81 | 1015.2 |
| 20260510004019 | 54 | 23 | 4.0 | 6.0 | 0.00 | 0.00 | 0.00 | 81 | 1015.4 |
| 20260510003019 | 54 | 45 | 4.0 | 5.0 | 0.00 | 0.00 | 0.00 | 81 | 1015.6 |
| 20260510002019 | 54 | 45 | 2.0 | 3.0 | 0.00 | 0.00 | 0.00 | 80 | 1015.6 |
| 20260510001019 | 54 | 23 | 4.0 | 5.0 | 0.00 | 0.00 | 0.00 | 80 | 1015.6 |
| 20260510000019 | 54 | 0 | 3.0 | 5.0 | 0.00 | 0.00 | 0.00 | 79 | 1015.7 |
| 20260509235030 | 54 | 23 | 3.0 | 5.0 | 0.00 | 0.00 | 0.00 | 79 | 1015.7 |
| 20260509234019 | 54 | 23 | 4.0 | 6.0 | 0.00 | 0.00 | 0.00 | 78 | 1015.7 |
| 20260509233019 | 54 | 45 | 5.0 | 7.0 | 0.00 | 0.00 | 0.00 | 78 | 1015.8 |
| 20260509232042 | 54 | 23 | 4.0 | 5.0 | 0.00 | 0.00 | 0.00 | 77 | 1016.0 |
| 20260509231213 | 54 | 45 | 3.0 | 5.0 | 0.00 | 0.00 | 0.00 | 77 | 1015.8 |
| 20260509230820 | 55 | 23 | 3.0 | 5.0 | 0.00 | 0.00 | 0.00 | 77 | 1015.9 |
| 20260509225819 | 55 | 45 | 4.0 | 8.0 | 0.00 | 0.00 | 0.00 | 77 | 1015.9 |
| 20260509224819 | 55 | 45 | 6.0 | 10.0 | 0.00 | 0.00 | 0.00 | 76 | 1016.0 |
| 20260509223841 | 55 | 45 | 4.0 | 10.0 | 0.00 | 0.00 | 0.00 | 75 | 1016.0 |
| 20260509222819 | 55 | 23 | 6.0 | 10.0 | 0.00 | 0.00 | 0.00 | 75 | 1016.0 |
| 20260509221819 | 55 | 45 | 4.0 | 6.0 | 0.00 | 0.00 | 0.00 | 75 | 1015.9 |
| 20260509220819 | 55 | 23 | 4.0 | 6.0 | 0.00 | 0.00 | 0.00 | 74 | 1016.0 |
| 20260509215830 | 55 | 23 | 4.0 | 8.0 | 0.00 | 0.00 | 0.00 | 73 | 1015.9 |
| 20260509214830 | 55 | 0 | 6.0 | 9.0 | 0.00 | 0.00 | 0.00 | 73 | 1015.9 |
| 20260509213819 | 55 | 23 | 4.0 | 6.0 | 0.00 | 0.00 | 0.00 | 72 | 1016.0 |
| 20260509212819 | 55 | 45 | 2.0 | 4.0 | 0.00 | 0.00 | 0.00 | 71 | 1015.9 |
| 20260509211819 | 55 | 23 | 2.0 | 4.0 | 0.00 | 0.00 | 0.00 | 71 | 1015.9 |
| 20260509210841 | 56 | 45 | 3.0 | 5.0 | 0.00 | 0.00 | 0.00 | 71 | 1015.9 |
| 20260509205919 | 56 | 45 | 2.0 | 4.0 | 0.00 | 0.00 | 0.00 | 71 | 1015.9 |
| 20260509204819 | 56 | 23 | 2.0 | 4.0 | 0.00 | 0.00 | 0.00 | 71 | 1015.7 |
| 20260509203819 | 56 | 23 | 4.0 | 7.0 | 0.00 | 0.00 | 0.00 | 71 | 1015.7 |
| 20260509202839 | 56 | 23 | 4.0 | 8.0 | 0.00 | 0.00 | 0.00 | 72 | 1015.7 |
| 20260509201839 | 56 | 23 | 4.0 | 5.0 | 0.00 | 0.00 | 0.00 | 72 | 1015.4 |
| 20260509200819 | 56 | 45 | 3.0 | 5.0 | 0.00 | 0.00 | 0.00 | 72 | 1015.6 |
| 20260509195830 | 56 | 45 | 3.0 | 5.0 | 0.00 | 0.00 | 0.00 | 71 | 1015.6 |
| 20260509194819 | 57 | 23 | 3.0 | 7.0 | 0.00 | 0.00 | 0.00 | 71 | 1015.5 |
| 20260509193819 | 57 | 0 | 5.0 | 8.0 | 0.00 | 0.00 | 0.00 | 71 | 1015.5 |
| 20260509192819 | 57 | 23 | 4.0 | 7.0 | 0.00 | 0.00 | 0.00 | 71 | 1015.4 |
| 20260509191819 | 58 | 315 | 3.0 | 8.0 | 0.00 | 0.00 | 0.00 | 70 | 1015.4 |
| 20260509190819 | 58 | 45 | 3.0 | 6.0 | 0.00 | 0.00 | 0.00 | 69 | 1015.2 |
| 20260509190024 | 58 | 23 | 4.0 | 6.0 | 0.00 | 0.00 | 0.00 | 68 | 1015.2 |
| 20260509185150 | 59 | 45 | 5.0 | 8.0 | 0.00 | 0.00 | 0.00 | 68 | 1015.4 |
| 20260509184121 | 59 | 23 | 4.0 | 7.0 | 0.00 | 0.00 | 0.00 | 67 | 1015.3 |
| 20260509183139 | 59 | 45 | 6.0 | 9.0 | 0.00 | 0.00 | 0.00 | 67 | 1015.3 |
| 20260509182119 | 60 | 23 | 4.0 | 8.0 | 0.00 | 0.00 | 0.00 | 66 | 1015.2 |
| 20260509181140 | 60 | 23 | 3.0 | 5.0 | 0.00 | 0.00 | 0.00 | 65 | 1015.2 |
| 20260509180119 | 60 | 23 | 5.0 | 10.0 | 0.00 | 0.00 | 0.00 | 64 | 1015.2 |
| 20260509175140 | 61 | 45 | 7.0 | 10.0 | 0.00 | 0.00 | 0.00 | 65 | 1015.1 |
| 20260509174119 | 61 | 23 | 4.0 | 9.0 | 0.00 | 0.00 | 0.00 | 64 | 1015.0 |
| 20260509173119 | 61 | 0 | 7.0 | 17.0 | 0.00 | 0.00 | 0.00 | 64 | 1014.9 |
| 20260509172119 | 62 | 0 | 9.0 | 14.0 | 0.00 | 0.00 | 0.00 | 63 | 1015.0 |
| 20260509171130 | 62 | 45 | 5.0 | 9.0 | 0.00 | 0.00 | 0.00 | 62 | 1015.0 |
| 20260509170151 | 63 | 23 | 8.0 | 15.0 | 0.00 | 0.00 | 0.00 | 60 | 1015.0 |
| 20260509165130 | 63 | 45 | 7.0 | 16.0 | 0.00 | 0.00 | 0.00 | 61 | 1014.9 |
| 20260509164130 | 63 | 45 | 6.0 | 11.0 | 0.00 | 0.00 | 0.00 | 61 | 1015.1 |
| 20260509163316 | 63 | 23 | 5.0 | 9.0 | 0.00 | 0.00 | 0.00 | 61 | 1015.0 |
| 20260509162919 | 63 | 23 | 6.0 | 12.0 | 0.00 | 0.00 | 0.00 | 61 | 1015.0 |
| 20260509162132 | 64 | 0 | 5.0 | 9.0 | 0.00 | 0.00 | 0.00 | 61 | 1015.0 |
| 20260509161630 | 64 | 45 | 4.0 | 7.0 | 0.00 | 0.00 | 0.00 | 60 | 1015.1 |
| 20260509160629 | 64 | 23 | 5.0 | 10.0 | 0.00 | 0.00 | 0.00 | 58 | 1015.2 |
| 20260509155639 | 65 | 0 | 6.0 | 16.0 | 0.00 | 0.00 | 0.00 | 55 | 1015.1 |